Date String (YYYY-MM-DD hh:mm:ss) UTC,Instrument flags,Ambient pressure (hPa),Sample flow (lpm),Bypass flow (lpm),Sample temperature (°C),Ambient temperature (°C),ASC tube jacket temperature (°C),LED temperature (°C),Box temperature (°C),Sample RH (%),Span deviation,Mass concentration (μg/m³),Mass concentration (μg/m³),Mass concentration (μg/m³)
DateTimeUTC,F1_M11,P_M11,Q1_M11,Q2_M11,T1_M11,T2_M11,T3_M11,T4_M11,T5_M11,U1_M11,ZSPAN_M11,X0_M11,X2_M11,X1_M11
2023-01-24 22:00:00,,0824.3,5.01,0.00,22.4,21.1,00.0,31.1,24.2,11.4,-002.4,0022.92,0015.88,0015.13
2023-01-24 22:01:00,,0824.2,5.00,0.00,22.4,21.1,00.0,31.1,24.2,11.5,-002.6,0022.96,0015.91,0015.18
2023-01-24 22:02:00,,0824.1,5.02,0.00,22.4,21.1,00.0,31.1,24.2,11.5,-002.6,0022.82,0015.90,0015.20
2023-01-24 22:03:00,,0824.2,5.00,0.00,22.4,21.2,00.0,31.1,24.3,11.5,-002.7,0022.21,0015.87,0015.16
2023-01-24 22:04:00,,0824.2,5.00,0.00,22.4,21.2,00.0,31.1,24.3,11.6,-002.6,0021.69,0015.78,0015.13
2023-01-24 22:05:00,,0824.4,4.99,0.00,22.4,21.2,00.0,31.1,24.3,11.6,-002.6,0021.32,0015.76,0015.12
2023-01-24 22:06:00,,0824.3,5.00,0.00,22.4,21.2,00.0,31.1,24.3,11.4,-002.7,0021.81,0015.70,0015.08
2023-01-24 22:07:00,,0824.2,4.99,0.00,22.4,21.2,00.0,31.1,24.3,11.5,-002.7,0021.68,0015.61,0015.01
2023-01-24 22:08:00,,0824.3,5.01,0.00,22.5,21.3,00.0,31.1,24.3,11.6,-002.5,0021.51,0015.56,0014.95
2023-01-24 22:09:00,,0824.2,5.00,0.00,22.5,21.3,00.0,31.1,24.3,11.4,-002.6,0021.30,0015.48,0014.88
2023-01-24 22:10:00,,0824.2,4.99,0.00,22.5,21.4,00.0,31.2,24.3,11.2,-002.8,0020.96,0015.37,0014.78
2023-01-24 22:11:00,,0824.3,5.00,0.00,22.5,21.4,00.0,31.2,24.4,11.1,-002.7,0020.72,0015.23,0014.64
2023-01-24 22:12:00,,0824.3,5.00,0.00,22.5,21.4,00.0,31.2,24.4,11.0,-002.7,0020.60,0015.12,0014.51
2023-01-24 22:13:00,,0824.2,4.99,0.00,22.5,21.4,00.0,31.2,24.4,11.1,-002.7,0020.55,0015.04,0014.42
2023-01-24 22:14:00,,0824.2,4.99,0.00,22.5,21.4,00.0,31.2,24.4,11.2,-002.5,0020.54,0014.98,0014.36
2023-01-24 22:15:00,,0824.2,4.99,0.00,22.5,21.4,00.0,31.2,24.4,11.2,-002.6,0020.49,0014.94,0014.32
2023-01-24 22:16:00,,0824.2,4.99,0.00,22.6,21.5,00.0,31.2,24.4,11.4,-002.6,0020.14,0014.86,0014.27
2023-01-24 22:17:00,,0824.2,5.00,0.00,22.5,21.4,00.0,31.2,24.4,11.2,-002.6,0019.39,0014.84,0014.26
2023-01-24 22:18:00,,0824.2,5.01,0.00,22.5,21.3,00.0,31.2,24.4,11.2,-002.6,0019.42,0014.86,0014.27
2023-01-24 22:19:00,,0824.2,5.00,0.00,22.5,21.2,00.0,31.2,24.4,11.2,-002.8,0019.60,0014.91,0014.28
2023-01-24 22:20:00,,0824.2,5.03,0.00,22.5,21.2,00.0,31.3,24.3,11.2,-002.8,0020.23,0014.91,0014.29
2023-01-24 22:21:00,,0824.2,5.00,0.00,22.5,21.0,00.0,31.3,24.3,11.3,-002.7,0020.46,0014.95,0014.34
2023-01-24 22:22:00,,0824.2,5.01,0.00,22.5,21.0,00.0,31.3,24.3,11.3,-002.7,0020.89,0015.04,0014.41
2023-01-24 22:23:00,,0824.2,4.99,0.00,22.5,20.9,00.0,31.3,24.3,11.3,-002.8,0021.11,0015.10,0014.47
2023-01-24 22:24:00,,0824.2,5.02,0.00,22.5,20.8,00.0,31.2,24.3,11.4,-002.7,0021.18,0015.15,0014.54
2023-01-24 22:25:00,,0824.3,4.98,0.00,22.5,20.8,00.0,31.2,24.3,11.5,-002.8,0021.99,0015.22,0014.60
2023-01-24 22:26:00,,0824.2,5.01,0.00,22.5,20.8,00.0,31.2,24.2,11.5,-002.7,0022.08,0015.26,0014.66
2023-01-24 22:27:00,,0824.2,5.00,0.00,22.4,20.8,00.0,31.2,24.2,11.4,-002.7,0022.12,0015.28,0014.66
2023-01-24 22:28:00,,0824.2,5.00,0.00,22.4,20.9,00.0,31.2,24.2,11.4,-002.6,0022.37,0015.35,0014.69
2023-01-24 22:29:00,,0824.2,5.00,0.00,22.4,20.9,00.0,31.2,24.3,11.5,-002.6,0022.61,0015.35,0014.69
2023-01-24 22:30:00,,0824.2,5.01,0.00,22.4,21.0,00.0,31.2,24.3,11.5,-002.6,0022.45,0015.32,0014.71
2023-01-24 22:31:00,,0824.2,5.00,0.00,22.5,21.1,00.0,31.2,24.3,11.5,-002.5,0022.29,0015.39,0014.73
2023-01-24 22:32:00,,0824.3,5.00,0.00,22.5,21.2,00.0,31.2,24.3,11.5,-002.5,0022.60,0015.49,0014.76
2023-01-24 22:33:00,,0824.2,4.99,0.00,22.5,21.2,00.0,31.2,24.3,11.5,-002.5,0023.97,0015.63,0014.82
2023-01-24 22:34:00,,0824.3,5.00,0.00,22.5,21.3,00.0,31.2,24.4,11.5,-002.5,0024.98,0015.70,0014.87
2023-01-24 22:35:00,,0824.3,5.00,0.00,22.5,21.4,00.0,31.2,24.4,11.5,-002.3,0025.45,0015.79,0014.93
2023-01-24 22:36:00,,0824.3,5.00,0.00,22.6,21.4,00.0,31.3,24.4,11.6,-002.3,0025.14,0015.83,0014.99
2023-01-24 22:37:00,,0824.3,5.00,0.00,22.6,21.5,00.0,31.3,24.5,11.6,-002.4,0025.63,0015.91,0015.05
2023-01-24 22:38:00,,0824.3,5.01,0.00,22.6,21.5,00.0,31.3,24.5,11.6,-002.4,0026.62,0016.01,0015.11
2023-01-24 22:39:00,,0824.3,5.00,0.00,22.6,21.5,00.0,31.3,24.5,11.7,-002.4,0027.16,0016.08,0015.17
2023-01-24 22:40:00,,0824.3,4.99,0.00,22.6,21.4,00.0,31.3,24.5,11.6,-002.3,0028.13,0016.14,0015.22
2023-01-24 22:41:00,,0824.3,4.99,0.00,22.6,21.3,00.0,31.3,24.4,11.5,-002.1,0028.50,0016.16,0015.25
2023-01-24 22:42:00,,0824.3,5.00,0.00,22.6,21.3,00.0,31.3,24.4,11.6,-002.3,0028.39,0016.15,0015.28
2023-01-24 22:43:00,,0824.3,4.99,0.00,22.6,21.2,00.0,31.3,24.4,11.5,-002.3,0028.46,0016.16,0015.31
2023-01-24 22:44:00,,0824.4,5.01,0.00,22.6,21.2,00.0,31.3,24.4,11.6,-002.2,0027.40,0016.16,0015.32
2023-01-24 22:45:00,,0824.4,4.98,0.00,22.6,21.2,00.0,31.3,24.4,11.6,-002.3,0026.59,0016.15,0015.33
2023-01-24 22:46:00,,0824.4,5.01,0.00,22.6,21.2,00.0,31.3,24.4,11.6,-002.5,0026.24,0016.15,0015.33
2023-01-24 22:47:00,,0824.4,4.98,0.00,22.6,21.2,00.0,31.3,24.4,11.6,-002.5,0026.02,0016.15,0015.32
2023-01-24 22:48:00,,0824.4,5.00,0.00,22.6,21.2,00.0,31.3,24.4,11.6,-002.6,0025.72,0016.13,0015.32
2023-01-24 22:49:00,,0824.4,5.00,0.00,22.6,21.2,00.0,31.3,24.4,11.7,-002.6,0025.04,0016.13,0015.34
2023-01-24 22:50:00,,0824.4,5.00,0.00,22.6,21.2,00.0,31.3,24.4,11.7,-002.7,0024.52,0016.11,0015.34
2023-01-24 22:51:00,,0824.4,5.00,0.00,22.6,21.3,00.0,31.3,24.4,11.6,-002.8,0023.25,0016.07,0015.33
2023-01-24 22:52:00,,0824.5,5.00,0.00,22.6,21.3,00.0,31.3,24.4,11.6,-002.8,0022.95,0016.10,0015.35
2023-01-24 22:53:00,,0824.4,5.03,0.00,22.6,21.3,00.0,31.3,24.4,11.5,-002.7,0022.82,0016.10,0015.33
2023-01-24 22:54:00,,0824.4,5.00,0.00,22.6,21.4,00.0,31.3,24.5,11.5,-002.6,0022.06,0016.03,0015.31
2023-01-24 22:55:00,,0824.4,5.00,0.00,22.6,21.4,00.0,31.3,24.5,11.4,-002.6,0022.05,0015.96,0015.29
2023-01-24 22:56:00,,0824.4,5.00,0.00,22.6,21.4,00.0,31.3,24.5,11.4,-002.6,0021.66,0015.94,0015.28
2023-01-24 22:57:00,,0824.4,5.00,0.00,22.6,21.4,00.0,31.3,24.5,11.4,-002.6,0022.06,0015.95,0015.29
2023-01-24 22:58:00,,0824.4,5.01,0.00,22.6,21.4,00.0,31.3,24.5,11.4,-002.4,0022.43,0015.95,0015.26
2023-01-24 22:59:00,,0824.4,5.00,0.00,22.6,21.4,00.0,31.3,24.5,11.4,-002.3,0022.15,0015.94,0015.22
